Simultaneous Nadir Overpasses (SNOs) Predictions

Prediction of SNOs between LANDSAT-8 and NOAA-19 Satellite Orbit:

Table of predicted SNOs for the next 14.0 days since TLE Epoch: 4/2/2022
Index Date (LANDSAT-8) Time (LANDSAT-8) Lat,Lon (LANDSAT-8) SZA (LANDSAT-8 ) Date (NOAA-19) Time (NOAA-19) Lat,Lon (NOAA-19) SZA (NOAA-19 ) Distance(km) Time Diff (sec)
1 04/04/2022 09:10:17 -80.75,-103.03 103.45 04/04/2022 09:10:00 -80.74,-102.95 103.46 1.69 17
2 04/04/2022 09:59:44 80.73, 64.31 76.49 04/04/2022 10:00:56 80.75, 64.27 76.53 2.17 72
3 04/06/2022 14:44:00 80.75, -6.53 75.72 04/06/2022 14:42:57 80.76, -6.59 75.70 1.61 63
4 04/06/2022 15:33:27 -80.75, 161.11 104.30 04/06/2022 15:34:00 -80.74, 161.20 104.28 1.70 33
5 04/08/2022 21:07:08 80.76,-102.17 74.91 04/08/2022 21:06:55 80.75,-102.25 74.89 1.87 13
6 04/11/2022 02:40:51 -80.77, -5.51 105.89 04/11/2022 02:40:00 -80.75, -5.54 105.92 1.73 51
7 04/11/2022 03:30:18 80.74, 161.77 74.04 04/11/2022 03:30:55 80.75, 161.69 74.07 2.30 37
8 04/13/2022 09:04:01 -80.74,-101.65 106.76 04/13/2022 09:04:00 -80.76,-101.55 106.73 2.59 1
9 04/15/2022 14:37:42 80.75, -4.92 72.49 04/15/2022 14:36:55 80.76, -5.03 72.47 2.45 47



Historial Predications of SNOs between LANDSAT-8 and NOAA-19
